FENGYUN 1C DEB, 29966

Orbit data source: Space-Track

FENGYUN 1C DEB, 29966 is space debris in SSO originally from a launch on Mon, 10 May 1999 UTC launched from the Taiyaun Space Center, China (TSC). Fengyun 1C debris stems from the Chinese weather satellite Fengyun-1C, which was intentionally destroyed by a Chinese anti-satellite missile in 2007. This event dramatically increased the amount of space debris, with thousands of trackable fragments posing hazards to satellites and human spaceflight. The Fengyun 1C debris cloud has become a focal point in discussions about space sustainability and the need for international regulations to prevent the creation of new debris.

Loading next visibility...
Identifier
29966, 1999-025KQ
Orbit
SSO
Country
Flag of CNCN / PRC
Related business
Manufacturer
Unknown
Mission
Spacecraft
Bus & Motor
Unknown
Mass
Unknown
Launch date (UTC)
1999-05-10 (27 years ago)
Launch vehicle
Unknown
Launch site
Taiyaun Space Center, China (TSC)
Object type
Payload
Rocket body
Debris
Shape & HBR
Unknown shape, 0.1 m
Radar Cross Section
Medium (>0.1 m² and <1 m²)

Expand to show TLE details & history
Last TLE update: 10 hours ago

TLE from 10 hours ago
0 FENGYUN 1C DEB
1 29966U 99025KQ  26256.45336357  .00000442  00000-0  20453-3 0  9991
2 29966  99.4596 130.6977 0038470 285.0643  74.6279 14.26164846 19589
Epoch: 2026-09-13T10:52Z
TLE epoch observation values (Epoch: 2026-09-13T10:52:50.612Z)
Latitude
-0.00003°
Longitude
-24.96097°
Altitude
800.249 km
Speed
7.457 km/s
True Right ascension
08h 42m 47s
True Declination
0° 00' 00"
Sunlit
Object was in daylight at epoch
Visualization orbit readout
Latitude
Unknown
Longitude
Unknown
Altitude
Unknown
Speed
Unknown
Apparent Right ascension
Unknown
Apparent Declination
Unknown
Sunlit
N/A
Visualization observer readout
Local Sidereal Time
13:35:04
Azimuth
Unknown
Elevation
Unknown
Doppler factor
Unknown
Orbital elements
Apogee altitude
829.388 km
Perigee altitude
774.146 km
Semi-major axis
7,179.904 km
Eccentricity
0.00385
Inclination
99.4596°
RAAN
130.6977°
Arg. of periapsis
285.0643°
True anomaly
75.0535°
Mean anomaly
74.6279°
Eccentric anomaly
74.84065°
Mean motion
3.56751 °/min
Orbital period
100.91 mins
BSTAR
0.00020453
Loading maneuver chart data...
Computing Atmospheric mass density...

Documentation

Showing up to 5 results
|